Location: Days
(41.3591°N, 106.7339°W)
Time: 16:58:28
(UTC+00:00)

Courier 1B Rocket - Visible Passes

Search period start: 26 May 2022 00:00
Search period end: 05 June 2022 00:00
Orbit: 920 x 1202 km, 28.2° (Epoch: 25 May)

Date Brightness Start Highest point End Pass type
(mag) Time Alt. Az. Time Alt. Az. Time Alt. Az.
26 May 6.5 08:50:10 18° SE 08:50:10 18° SE 08:52:13 10° SE visible
26 May 6.2 10:36:33 13° SW 10:39:48 19° SSW 10:44:06 10° SSE visible
27 May 6.0 09:39:29 22° S 09:39:29 22° S 09:43:44 10° SE visible
28 May 6.9 08:42:32 13° SE 08:42:32 13° SE 08:43:13 10° SE visible
28 May 6.3 10:28:56 14° SW 10:30:44 16° SSW 10:34:20 10° SSE visible
29 May 6.5 09:32:12 16° SSE 09:32:12 16° SSE 09:34:20 10° SSE visible
30 May 7.1 04:40:01 10° SSW 04:40:13 10° SSW 04:40:13 10° SSW visible
30 May 6.6 10:22:04 12° SSW 10:22:04 12° SSW 10:23:50 10° S visible
31 May 6.7 03:40:16 10° S 03:43:20 13° SSE 03:44:04 13° SSE visible
01 Jun 6.4 04:29:55 10° SSW 04:34:09 20° S 04:34:09 20° S visible
02 Jun 6.5 03:29:32 10° SSW 03:34:10 18° SSE 03:37:35 13° SE visible
02 Jun 6.5 05:21:05 10° SW 05:24:00 20° SSW 05:24:00 20° SSW visible
03 Jun 6.1 04:20:12 10° SW 04:25:56 25° S 04:27:13 24° SSE visible
03 Jun 7.1 06:12:56 10° WSW 06:13:37 12° SW 06:13:37 12° SW visible
04 Jun 6.4 03:19:28 10° SW 03:25:00 22° SSE 03:30:15 10° ESE visible
04 Jun 6.2 05:11:47 10° SW 05:16:38 27° SSW 05:16:38 27° SSW visible
